• In Netherlands
  • List of Countries
  • For 7 days
  • Water Temperature
  • Satellite Maps
  • Weather Map
  • Weather Widgets
  • user-avatar
    Login

    Hourly Weather Gjirokaster

    Today, 23 June, Friday

    Time Temperature Precipitation Wind Pressure Humidity
    00:00 +13°C° 0 mm 1 mps 654 mmHg 82%
    01:00 +12°C° 0 mm 1 mps 654 mmHg 82%
    02:00 +12°C° 0 mm 1 mps 654 mmHg 83%
    03:00 +12°C° 0 mm 1 mps 653 mmHg 83%
    04:00 +12°C° 0 mm 1 mps 653 mmHg 83%
    05:00 +15°C° 0 mm 1 mps 654 mmHg 73%
    06:00 +19°C° 0 mm 1 mps 655 mmHg 63%
    07:00 +22°C° 0 mm 1 mps 656 mmHg 53%
    08:00 +23°C° 0 mm 1 mps 656 mmHg 47%
    09:00 +24°C° 0 mm 1 mps 657 mmHg 42%
    10:00 +26°C° 0 mm 2 mps 657 mmHg 36%
    11:00 +26°C° 0 mm 2 mps 657 mmHg 35%
    12:00 +27°C° 0 mm 3 mps 657 mmHg 34%
    13:00 +27°C° 0 mm 3 mps 657 mmHg 32%
    14:00 +27°C° 0.1 mm 3 mps 656 mmHg 34%
    15:00 +26°C° 0.1 mm 3 mps 656 mmHg 37%
    16:00 +25°C° 0.1 mm 3 mps 656 mmHg 39%
    17:00 +22°C° 0 mm 3 mps 655 mmHg 47%
    18:00 +19°C° 0 mm 2 mps 654 mmHg 55%
    19:00 +17°C° 0 mm 2 mps 654 mmHg 64%
    20:00 +16°C° 0 mm 2 mps 654 mmHg 67%
    21:00 +14°C° 0 mm 1 mps 653 mmHg 70%
    22:00 +13°C° 0 mm 1 mps 653 mmHg 72%
    23:00 +13°C° 0 mm 1 mps 653 mmHg 71%

    Tomorrow, 24 June, Saturday

    Time Temperature Precipitation Wind Pressure Humidity
    00:00 +13°C° 0 mm 1 mps 653 mmHg 70%
    01:00 +12°C° 0 mm 1 mps 653 mmHg 69%
    02:00 +12°C° 0 mm 1 mps 653 mmHg 70%
    03:00 +12°C° 0 mm 1 mps 653 mmHg 71%
    04:00 +12°C° 0 mm 1 mps 652 mmHg 72%
    05:00 +15°C° 0 mm 1 mps 653 mmHg 64%
    06:00 +18°C° 0 mm 1 mps 654 mmHg 56%
    07:00 +21°C° 0 mm 1 mps 655 mmHg 48%
    08:00 +23°C° 0 mm 1 mps 655 mmHg 43%
    09:00 +25°C° 0 mm 1 mps 656 mmHg 38%
    10:00 +27°C° 0 mm 2 mps 656 mmHg 33%
    11:00 +28°C° 0 mm 2 mps 656 mmHg 33%
    12:00 +28°C° 0 mm 2 mps 656 mmHg 33%
    13:00 +28°C° 0 mm 3 mps 656 mmHg 32%
    14:00 +28°C° 0.2 mm 3 mps 655 mmHg 35%
    15:00 +27°C° 0.2 mm 3 mps 655 mmHg 38%
    16:00 +26°C° 0.2 mm 3 mps 655 mmHg 40%
    17:00 +24°C° 0.1 mm 3 mps 654 mmHg 48%
    18:00 +21°C° 0.1 mm 2 mps 654 mmHg 56%
    19:00 +18°C° 0.1 mm 2 mps 653 mmHg 64%
    20:00 +17°C° 0.1 mm 2 mps 653 mmHg 67%
    21:00 +16°C° 0.1 mm 1 mps 653 mmHg 70%
    22:00 +15°C° 0.1 mm 1 mps 653 mmHg 73%
    23:00 +15°C° 0 mm 1 mps 653 mmHg 74%

    Day after tomorrow, 25 June, Sunday

    Time Temperature Precipitation Wind Pressure Humidity
    00:00 +15°C° 0 mm 1 mps 653 mmHg 75%
    01:00 +14°C° 0 mm 1 mps 653 mmHg 76%
    02:00 +14°C° 0.1 mm 1 mps 652 mmHg 77%
    03:00 +14°C° 0.1 mm 1 mps 652 mmHg 78%
    04:00 +14°C° 0.1 mm 1 mps 652 mmHg 78%
    05:00 +16°C° 0 mm 1 mps 653 mmHg 70%
    06:00 +18°C° 0 mm 0 mps 653 mmHg 62%
    07:00 +21°C° 0 mm 0 mps 654 mmHg 54%
    08:00 +24°C° 0.1 mm 1 mps 654 mmHg 49%
    09:00 +26°C° 0.1 mm 1 mps 655 mmHg 44%
    10:00 +28°C° 0.1 mm 1 mps 655 mmHg 40%
    11:00 +28°C° 0.6 mm 2 mps 655 mmHg 40%
    12:00 +28°C° 0.6 mm 2 mps 655 mmHg 40%
    13:00 +28°C° 0.6 mm 2 mps 654 mmHg 40%
    14:00 +27°C° 0.5 mm 2 mps 654 mmHg 42%
    15:00 +26°C° 0.5 mm 2 mps 654 mmHg 45%
    16:00 +26°C° 0.5 mm 2 mps 653 mmHg 47%
    17:00 +24°C° 0.3 mm 1 mps 653 mmHg 54%
    18:00 +22°C° 0.3 mm 1 mps 653 mmHg 61%
    19:00 +20°C° 0.3 mm 1 mps 652 mmHg 68%
    20:00 +19°C° 0.4 mm 1 mps 652 mmHg 69%
    21:00 +18°C° 0.4 mm 1 mps 652 mmHg 69%
    22:00 +16°C° 0.4 mm 1 mps 652 mmHg 70%
    23:00 +15°C° 0.2 mm 1 mps 652 mmHg 71%

    26 June, Monday

    Time Temperature Precipitation Wind Pressure Humidity
    00:00 +15°C° 0.2 mm 1 mps 652 mmHg 72%
    01:00 +13°C° 0.2 mm 0 mps 651 mmHg 73%
    02:00 +14°C° 0.1 mm 1 mps 651 mmHg 73%
    03:00 +14°C° 0.1 mm 1 mps 651 mmHg 73%
    04:00 +13°C° 0.1 mm 1 mps 651 mmHg 73%
    05:00 +15°C° 0.1 mm 0 mps 652 mmHg 66%
    06:00 +18°C° 0.1 mm 0 mps 652 mmHg 58%
    07:00 +20°C° 0.1 mm 0 mps 653 mmHg 51%
    08:00 +24°C° 0 mm 1 mps 654 mmHg 45%
    09:00 +26°C° 0 mm 1 mps 654 mmHg 39%
    10:00 +27°C° 0 mm 2 mps 654 mmHg 34%
    11:00 +28°C° 0 mm 2 mps 654 mmHg 33%
    12:00 +28°C° 0 mm 2 mps 654 mmHg 33%
    13:00 +28°C° 0 mm 3 mps 654 mmHg 33%
    14:00 +28°C° 0.1 mm 3 mps 654 mmHg 35%
    15:00 +27°C° 0.1 mm 2 mps 653 mmHg 38%
    16:00 +26°C° 0.1 mm 2 mps 653 mmHg 40%
    17:00 +24°C° 0 mm 2 mps 653 mmHg 49%
    18:00 +21°C° 0 mm 1 mps 652 mmHg 58%
    19:00 +19°C° 0 mm 1 mps 652 mmHg 68%
    20:00 +18°C° 0 mm 1 mps 652 mmHg 70%
    21:00 +16°C° 0 mm 1 mps 652 mmHg 73%
    22:00 +14°C° 0 mm 0 mps 652 mmHg 75%
    23:00 +13°C° 0 mm 0 mps 652 mmHg 76%

    27 June, Tuesday

    Time Temperature Precipitation Wind Pressure Humidity
    00:00 +13°C° 0 mm 0 mps 652 mmHg 76%
    01:00 +13°C° 0 mm 0 mps 651 mmHg 77%
    02:00 +12°C° 0 mm 0 mps 651 mmHg 77%
    03:00 +12°C° 0 mm 0 mps 651 mmHg 77%
    04:00 +12°C° 0 mm 0 mps 651 mmHg 78%
    05:00 +15°C° 0 mm 0 mps 652 mmHg 67%
    06:00 +18°C° 0 mm 0 mps 653 mmHg 57%
    07:00 +21°C° 0 mm 0 mps 654 mmHg 47%
    08:00 +24°C° 0 mm 1 mps 654 mmHg 42%
    09:00 +26°C° 0 mm 1 mps 655 mmHg 38%
    10:00 +28°C° 0 mm 1 mps 655 mmHg 33%
    11:00 +28°C° 0 mm 2 mps 655 mmHg 33%
    12:00 +28°C° 0 mm 2 mps 655 mmHg 32%
    13:00 +28°C° 0 mm 3 mps 655 mmHg 32%
    14:00 +28°C° 0.1 mm 3 mps 654 mmHg 34%
    15:00 +27°C° 0.1 mm 3 mps 654 mmHg 36%
    16:00 +27°C° 0.1 mm 2 mps 654 mmHg 38%
    17:00 +24°C° 0 mm 2 mps 654 mmHg 47%
    18:00 +22°C° 0 mm 1 mps 653 mmHg 56%
    19:00 +19°C° 0 mm 1 mps 652 mmHg 65%
    20:00 +18°C° 0 mm 1 mps 652 mmHg 68%
    21:00 +16°C° 0 mm 1 mps 652 mmHg 71%
    22:00 +14°C° 0 mm 0 mps 652 mmHg 74%
    23:00 +13°C° 0 mm 0 mps 652 mmHg 74%

    28 June, Wednesday

    Time Temperature Precipitation Wind Pressure Humidity
    00:00 +13°C° 0 mm 0 mps 652 mmHg 75%
    01:00 +13°C° 0 mm 0 mps 651 mmHg 75%
    02:00 +13°C° 0 mm 1 mps 651 mmHg 75%
    03:00 +13°C° 0 mm 1 mps 651 mmHg 76%
    04:00 +13°C° 0 mm 1 mps 651 mmHg 76%
    05:00 +16°C° 0 mm 1 mps 652 mmHg 66%
    06:00 +20°C° 0 mm 1 mps 653 mmHg 55%
    07:00 +23°C° 0 mm 1 mps 654 mmHg 44%
    08:00 +25°C° 0 mm 1 mps 654 mmHg 41%
    09:00 +27°C° 0 mm 1 mps 654 mmHg 37%
    10:00 +28°C° 0 mm 2 mps 655 mmHg 33%
    11:00 +29°C° 0 mm 2 mps 654 mmHg 32%
    12:00 +29°C° 0 mm 2 mps 654 mmHg 31%
    13:00 +30°C° 0 mm 3 mps 654 mmHg 30%
    14:00 +29°C° 0 mm 3 mps 653 mmHg 32%
    15:00 +28°C° 0 mm 3 mps 653 mmHg 34%
    16:00 +28°C° 0 mm 3 mps 653 mmHg 36%
    17:00 +25°C° 0.1 mm 2 mps 652 mmHg 46%
    18:00 +21°C° 0.1 mm 2 mps 652 mmHg 55%
    19:00 +19°C° 0.1 mm 1 mps 651 mmHg 65%
    20:00 +18°C° 0 mm 1 mps 651 mmHg 67%
    21:00 +16°C° 0 mm 2 mps 651 mmHg 69%
    22:00 +15°C° 0 mm 2 mps 651 mmHg 71%
    23:00 +15°C° 0 mm 2 mps 651 mmHg 71%
    Show more